SCP
0 0 0 0 0 0 0 0 0 0 0 0 0 0 0 0 1 1 1 1 1 0 0 0 0 0 0 0 0 0 0 0 0 0 0 0 0 0 0 0 0 0 0 0
0 0 0 0 0 0 0 0 0 0 0 0 0 0 0 0 0 0 1 1 0 0 0 0 0 0 0 0 0 0 0 0 0 0 0 0 0 0 0 0 0 0 0 0
0 0 0 0 0 0 0 0 0 0 0 0 0 0 0 0 0 0 0 0 0 0 0 0 0 0 0 0 0 0 0 0 0 0 0 0 0 0 0 0 0 0 0 0
0 0 0 0 0 0 0 0 0 0 0 0 0 0 0 0 0 0 0 0 0 0 0 0 0 0 0 0 0 0 0 0 0 0 0 0 0 0 0 0 0 0 0 0
0 0 0 0 0 0 0 0 0 0 0 0 0 0 0 0 0 0 0 0 0 0 0 0 0 0 0 0 0 0 0 0 0 0 0 0 0 0 0 0 0 0 0 0
0 0 0 0 0 0 0 0 0 0 0 0 0 0 0 0 0 0 0 0 0 0 0 0 0 0 0 0 0 0 0 0 0 0 0 0 0 0 0 0 0 0 0 0
0 0 0 0 0 0 0 0 0 0 0 0 0 0 0 0 0 0 0 0 0 0 0 0 0 0 0 0 0 0 0 0 0 0 0 0 0 0 0 0 0 0 0 0
0 0 0 0 0 0 0 0 0 0 0 0 0 0 0 0 0 0 0 0 0 0 0 0 0 0 0 0 0 0 0 0 0 0 0 0 0 0 0 0 0 0 0 0
0 0 0 0 0 0 0 0 0 0 0 0 0 0 0 0 0 0 0 0 0 0 0 0 0 0 0 0 0 0 0 0 0 0 0 0 0 0 0 0 0 0 0 0
0 0 0 0 0 0 0 0 0 0 0 0 0 0 0 0 0 0 0 0 0 0 0 0 0 0 0 0 0 0 0 0 0 0 0 0 0 0 0 0 0 0 0 0
0 0 0 0 0 0 0 0 0 0 0 0 0 0 0 0 0 0 0 0 0 0 0 0 0 0 0 0 0 0 0 0 0 0 0 0 0 0 0 0 0 0 0 0
0 0 0 0 0 0 0 0 0 0 0 0 0 0 0 0 0 0 0 0 0 0 0 0 0 0 0 0 0 0 0 0 0 0 0 0 0 0 0 0 0 0 0 0
0 0 0 0 0 0 0 0 0 0 0 0 0 0 0 0 0 0 0 0 0 0 0 0 0 0 0 0 0 0 0 0 0 0 0 0 0 0 0 0 0 0 0 0
0 0 0 0 0 0 0 0 0 0 0 -0 0 0 0 0 0 0 0 0 0 0 0 0 0 0 0 0 0 0 0 0 0 0 0 0 0 0 0 0 0 0 0 0
0 0 0 0 0 0 0 0 0 0 0 0 0 0 0 0 0 0 0 0 0 0 0 0 0 0 0 0 0 0 0 0 0 0 0 0 0 0 0 0 0 0 0 0
0 0 0 0 0 0 0 0 0 0 0 0 0 0 0 0 0 0 0 0 0 0 0 0 0 0 0 0 0 0 0 0 0 0 0 0 0 0 0 0 0 0 0 0
0 0 0 0 0 0 0 0 0 0 0 0 0 0 0 0 0 0 0 0 0 0 0 0 0 0 0 0 0 0 0 0 0 0 0 0 0 0 0 0 0 0 0 0
0 0 0 0 0 0 0 0 0 0 0 0 0 0 0 0 0 0 0 0 0 0 0 0 0 0 0 0 0 0 0 0 0 0 0 0 0 0 0 0 0 0 0 0
0 0 0 0 0 0 0 0 0 0 0 0 0 0 0 0 0 0 0 0 0 0 0 0 0 0 0 0 0 0 0 0 0 0 0 0 0 0 0 0 0 0 0 0
0 0 0 0 0 0 0 0 0 0 0 0 0 0 0 0 0 0 0 0 0 0 0 0 0 0 0 0 0 0 0 0 0 0 0 0 0 0 0 0 0 0 0 0
0 0 0 0 0 0 0 0 0 0 0 0 0 0 0 0 0 0 0 0 0 0 0 0 0 0 0 0 0 0 0 0 0 0 0 0 0 0 0 0 0 0 0 0
0 0 0 0 0 0 0 0 0 0 0 0 0 0 0 0 0 0 0 0 0 0 0 0 0 0 0 0 0 0 0 0 0 0 0 0 0 0 0 0 0 0 0 0
0 0 0 0 0 0 0 0 0 0 0 0 0 0 0 0 0 0 0 0 0 0 0 0 0 0 0 0 0 0 0 0 0 0 0 0 0 0 0 0 0 0 0 0
0 0 0 0 0 0 0 0 0 0 0 0 0 0 0 0 0 0 0 0 0 0 0 0 0 0 0 0 0 0 0 0 0 0 0 0 0 0 0 0 0 0 0 0
0 0 0 0 0 0 0 0 0 0 0 0 0 0 0 0 0 0 0 0 0 0 0 0 0 0 0 0 0 0 0 0 0 0 0 0 0 0 0 0 0 0 0 0
0 0 0 0 0 0 0 0 0 0 0 0 0 0 0 0 0 0 0 0 0 0 0 0 0 0 0 0 0 0 0 0 0 0 0 0 0 0 0 0 0 0 0 0
Wind_Speed
7 8 7 5 6 8 7 6 2 3 2 1 4 7 7 5 5 6 7 7 7 7 7 6 6 5 5 5 5 4 3 3 2 1 1 1 1 1 1 1 1 2 3 2
7 8 5 6 5 7 7 6 2 4 3 1 5 6 6 5 5 4 4 5 5 6 7 6 5 5 5 4 4 4 4 3 2 1 1 2 2 3 2 2 1 3 3 4
9 4 3 5 5 6 7 7 3 4 5 4 5 6 7 6 5 5 4 4 4 5 5 6 5 5 5 4 4 3 2 2 1 1 2 2 2 3 3 3 3 3 4 4
6 3 5 6 4 7 5 2 3 6 7 4 5 3 7 8 8 8 7 7 6 6 5 5 5 5 5 4 4 3 2 1 1 2 3 4 4 5 4 4 3 4 5 5
3 2 5 5 3 4 2 1 5 6 5 4 4 3 6 7 8 9 9 8 7 6 5 5 4 4 4 4 4 3 2 1 1 2 2 4 5 5 5 4 4 6 5 5
4 1 3 2 1 2 6 6 6 6 7 3 1 3 5 5 6 8 9 8 7 6 5 4 4 4 4 3 3 2 2 1 1 2 3 4 5 6 7 7 7 7 6 5
4 4 3 3 4 7 7 7 5 6 5 2 2 3 5 6 5 5 7 8 7 7 6 5 5 5 4 3 2 1 1 1 2 3 4 4 5 7 8 8 7 7 7 6
4 4 4 3 4 3 5 7 6 5 2 3 5 2 6 6 5 5 6 7 7 6 6 5 5 4 3 2 2 1 1 2 2 3 4 4 5 6 6 6 8 8 7 7
4 1 5 2 1 4 3 3 4 5 3 2 4 4 7 6 7 7 8 8 7 6 6 5 5 4 2 1 1 1 1 2 3 3 4 4 5 6 7 7 8 7 6 7
4 2 5 5 5 2 4 1 4 4 4 2 4 4 4 10 9 9 8 7 7 6 6 5 4 3 2 1 0 1 2 2 3 4 4 4 5 6 6 7 7 8 8 8
4 5 4 6 4 2 4 4 3 2 5 6 1 5 5 6 7 8 8 7 7 6 5 5 4 3 2 1 1 1 2 3 3 4 5 6 6 6 7 7 8 8 8 9
3 5 2 3 3 2 3 2 3 3 1 3 3 6 6 4 6 6 6 6 6 5 5 4 3 2 1 1 2 2 3 4 4 4 5 6 6 7 8 8 8 8 9 9
2 5 5 7 8 7 5 4 4 3 2 3 3 6 7 6 7 7 6 7 6 5 4 4 2 1 1 2 2 3 4 4 5 6 7 7 7 8 8 9 9 9 9 9
4 5 7 6 3 1 5 6 7 7 5 2 3 2 6 7 8 8 7 6 6 6 5 3 2 1 1 2 3 4 4 5 5 6 7 8 8 8 9 9 9 9 9 9
5 6 5 6 4 6 7 6 9 9 7 7 4 3 1 5 7 7 7 6 6 5 4 3 2 1 2 2 3 4 5 5 6 7 8 8 8 9 9 9 9 9 9 9
4 6 7 7 5 6 8 8 9 9 8 7 6 4 2 5 6 7 7 6 6 5 4 2 2 1 2 3 4 5 5 5 6 7 8 8 9 9 9 9 9 9 9 9
6 6 7 7 2 7 8 6 7 8 7 7 7 1 6 6 7 7 7 6 6 4 3 2 1 1 2 3 3 5 5 6 6 7 8 8 9 9 9 10 10 10 10 9
6 7 7 7 5 7 2 2 3 6 6 6 5 2 5 5 5 5 5 6 6 5 4 2 1 1 2 2 3 4 6 6 7 7 8 8 9 9 10 10 10 10 9 9
6 7 7 7 8 6 3 4 5 6 6 5 6 4 5 5 5 7 7 6 5 4 3 2 2 1 1 3 4 5 6 7 7 7 8 8 9 10 10 10 10 10 9 10
6 7 9 7 8 6 0 5 4 4 6 4 6 6 7 8 7 4 8 7 6 5 4 3 2 2 2 3 4 6 7 7 7 8 8 8 9 9 10 10 10 10 9 9
7 7 9 9 9 6 4 7 7 6 2 5 6 7 9 9 3 6 7 7 7 6 5 4 3 3 2 3 4 6 7 7 7 8 8 9 9 9 10 9 9 9 9 9
6 6 7 6 8 3 8 7 6 3 4 4 5 7 9 7 6 7 7 7 7 6 5 4 4 3 3 3 4 6 7 7 7 7 8 9 9 9 8 8 9 8 9 9
5 5 4 4 3 4 4 4 2 2 3 3 5 6 8 8 8 8 8 7 7 6 5 4 4 4 3 4 5 7 6 6 7 8 9 9 9 9 8 8 9 8 7 7
4 1 5 6 4 3 3 5 5 5 6 5 5 6 8 9 9 9 8 7 7 6 5 4 4 4 4 4 5 6 6 6 7 8 9 8 9 9 8 6 7 7 7 7
4 3 5 7 6 5 2 2 4 5 6 5 5 6 8 9 9 9 8 7 6 5 5 5 5 5 5 5 5 5 5 6 7 8 8 8 8 8 7 7 6 7 7 6
4 5 7 6 5 7 6 6 6 5 5 5 6 7 8 8 8 8 7 6 6 5 5 5 5 5 5 5 5 5 5 5 7 8 7 7 7 6 7 7 7 5 8 8
Wind_Direction
204 241 264 301 290 297 300 291 301 73 77 215 152 135 130 133 145 143 138 133 126 121 118 117 117 116 119 118 125 125 120 127 160 177 251 272 278 291 294 294 335 293 301 303
221 244 284 296 283 263 258 257 216 124 115 178 144 135 136 150 153 147 136 138 137 138 136 138 141 142 136 133 138 146 151 145 183 128 302 311 317 293 294 299 292 282 281 282
258 322 337 264 256 248 247 260 243 154 139 153 165 157 158 157 159 162 153 159 160 154 158 156 156 155 156 151 154 143 139 163 203 256 259 271 261 266 264 276 271 283 282 273
262 288 272 265 264 270 264 263 222 180 202 170 228 191 149 166 173 175 169 174 175 170 172 170 167 164 167 160 148 139 151 172 218 252 279 290 293 295 305 296 298 292 277 277
258 278 275 275 315 284 7 128 190 201 219 194 202 241 129 164 174 172 173 176 172 173 177 178 171 160 160 160 156 151 153 164 212 274 276 277 285 293 293 294 288 285 276 271
271 241 290 336 49 147 142 154 170 208 230 214 163 260 132 156 172 169 170 174 172 176 177 169 156 153 156 164 171 166 159 173 231 279 294 293 299 300 302 297 296 286 281 273
206 189 171 193 175 170 210 227 221 211 213 132 128 253 101 121 142 162 169 170 170 173 176 171 168 163 164 170 169 185 198 246 281 290 296 297 297 292 284 289 292 291 290 286
251 183 159 204 262 244 228 267 294 306 327 116 165 191 113 130 140 155 162 165 168 172 171 171 167 166 170 164 169 203 262 292 305 305 307 304 297 292 300 305 303 298 296 301
285 131 129 150 254 273 228 256 321 282 281 255 141 139 139 156 168 168 166 169 173 172 167 169 165 159 156 151 134 334 320 314 314 312 308 298 305 310 312 304 287 291 299 296
295 255 153 159 176 138 308 249 225 271 303 277 147 170 154 171 181 177 177 174 167 169 169 164 154 146 140 127 64 350 334 332 320 309 308 315 311 305 301 297 307 303 299 297
262 258 172 187 221 177 180 194 268 296 315 310 47 96 88 165 176 179 175 168 167 173 166 158 151 148 158 179 299 316 326 321 320 319 316 312 308 308 299 292 293 295 295 295
253 275 242 168 114 313 276 278 249 294 39 312 309 97 116 158 171 178 166 159 159 165 159 153 150 156 188 287 318 322 320 317 317 319 311 310 311 307 304 303 303 299 295 291
204 255 234 182 176 189 210 203 230 262 249 289 311 97 133 165 177 177 170 161 161 168 165 159 164 193 267 311 319 319 315 319 322 323 315 318 315 314 310 308 305 301 297 293
254 260 284 305 357 235 213 201 212 239 267 276 305 45 153 178 184 180 177 174 175 174 178 189 195 223 288 307 315 314 319 325 323 320 318 321 319 316 312 310 307 302 297 294
246 257 260 284 291 270 266 241 216 234 270 292 309 304 201 176 188 181 178 182 186 189 195 199 223 262 290 309 315 320 322 323 319 316 317 320 318 316 312 310 308 306 299 294
236 275 271 256 251 263 260 254 240 238 253 263 274 280 114 144 169 175 184 193 203 204 203 204 222 267 297 316 322 325 319 319 313 312 316 320 317 316 314 311 309 306 302 300
224 247 263 264 243 258 249 245 237 232 235 253 266 300 144 175 185 192 193 202 211 209 204 214 248 280 303 313 320 314 315 311 307 309 313 316 316 315 315 313 311 309 305 301
241 246 257 265 254 258 32 85 264 258 250 244 260 217 187 195 181 190 197 205 207 202 203 203 224 254 286 302 302 305 307 304 304 306 311 316 317 316 315 311 310 308 305 302
231 237 254 262 254 256 216 192 214 234 252 229 231 216 176 161 183 199 192 200 200 191 190 188 201 239 279 291 302 304 302 305 306 309 315 319 317 313 311 310 310 309 306 302
197 227 248 244 263 268 237 126 164 234 241 181 198 196 178 184 227 159 155 176 182 180 179 183 190 225 258 282 296 295 301 309 312 316 318 317 311 308 306 307 307 306 303 298
194 207 233 243 253 259 96 134 177 234 40 132 187 190 188 202 255 107 145 162 173 177 179 183 202 237 264 280 283 289 302 310 315 315 312 308 306 304 300 302 303 303 300 300
245 225 218 237 247 252 123 164 214 359 80 170 194 195 196 197 178 161 163 167 174 180 185 193 208 236 255 267 272 283 296 309 309 305 303 304 306 304 305 303 301 300 299 295
251 298 297 274 310 49 186 221 267 329 244 225 215 203 198 200 192 184 180 180 184 189 193 206 220 240 252 257 265 281 297 304 301 301 302 305 306 304 300 300 301 299 297 296
196 207 266 267 263 275 246 248 259 256 256 250 232 211 202 204 196 189 186 187 189 191 194 207 228 248 259 265 267 277 289 294 293 296 301 302 302 302 307 302 299 305 307 307
314 234 261 261 278 277 222 289 292 271 255 241 225 209 203 202 197 190 188 191 193 193 192 205 224 245 260 266 269 273 281 286 289 295 298 300 302 308 306 302 301 300 304 314
286 280 278 290 332 310 315 327 314 284 256 238 219 203 198 198 197 191 192 189 191 195 199 212 227 245 257 262 265 270 275 277 286 292 299 306 309 313 308 309 305 262 258 269